Tracking 20228 objects as of 17-Jan-2020
HD Live streaming from Space Station
objects crossing your sky now

COSMOS 2494 (SKRL 756)

Track COSMOS 2494 (SKRL 756) now!
10-day predictions
COSMOS 2494 (SKRL 756) is classified as:


NORAD ID: 39491
Int'l Code: 2013-078B
Perigee: 588.9 km
Apogee: 621.6 km
Inclination: 82.4 °
Period: 96.6 minutes
Semi major axis: 6976 km
RCS: Unknown
Launch date: December 28, 2013
Source: Commonwealth of Independent States (former USSR) (CIS)
Launch site: PLESETSK MISSILE AND SPACE COMPLEX (PKMTR)
aabbcc
Your satellite tracking list
Your tracking list is empty




NASA's NSSDC Master Catalog

Two Line Element Set (TLE):
1 39491U 13078B   20017.12008482  .00000212  00000-0  19304-4 0  9996
2 39491  82.4189 354.5782 0023417 123.4564 236.8897 14.89932382328944
Source of the keplerian elements: AFSPC